Flag for Germany Weather past 2 weeks in Offenburg, Baden-Württemberg, Germany

Now
66 °F

Rain. Broken clouds.


Feels Like: 66 °F
Forecast: 58 / 76 °F
Wind: 5 mph from West

Location: Lahr - CAN-AFB

Current Time: Jul 30, 2014 at 5:35:00 PM

Latest Report: Jul 30, 2014 at 4:50 PM


Visibility: 1 mi

Pressure: 29.89 "Hg

Humidity: 94%

Dew point: 64 °F

Location of OffenburgLocation

Historic Weather in Offenburg — Graph

°F

Offenburg temperature yesterday

Maximum temperature yesterday: 66 °F (at 5:20 PM)
Minimum temperature yesterday: 61 °F (at 7:50 AM)
Average temperature yesterday: 63 °F

Past Weeks' High & Low Weather Summary

 TemperatureHumidityPressure
High93 °F (Jul 19, 5:20 PM)100% (Jul 21, 8:20 AM)30.18 "Hg (Jul 21, 8:20 AM)
Low59 °F (Jul 17, 6:50 AM)26% (Jul 18, 4:20 PM)29.77 "Hg (Jul 28, 4:50 PM)
Average74 °F67%29.95 "Hg
* Reported Jul 15 4:20 PM — Jul 30 4:20 PM, Offenburg, Weather by CustomWeather, © 2014

Note: Actual official high and low records may vary slightly from our data, if they occured in-between our weather recording intervals... More about our weather records

Advertising

Offenburg weather history for previous 24 hours

 ConditionsComfort  
Time TempWeatherWind HumidityBarometerVisibility
4:20 PM
Jul 30
66 °FLight rain. Partly sunny.7 mph94%29.89 "HgN/A
3:50 PM68 °FDrizzle. Broken clouds.6 mph88%29.89 "Hg4 mi
3:20 PM68 °FLight rain. Broken clouds.5 mph94%29.89 "Hg3 mi
2:50 PM68 °FLight rain. Partly sunny.2 mph88%29.89 "Hg2 mi
2:20 PM68 °FLight rain. Partly sunny.2 mph83%29.86 "Hg5 mi
1:50 PM68 °FPartly sunny.5 mph88%29.86 "HgN/A
1:20 PM66 °FPartly sunny.5 mph94%29.86 "HgN/A
12:50 PM66 °FDrizzle. Partly sunny.5 mph88%29.86 "HgN/A
12:20 PM64 °FDrizzle. Partly sunny.5 mph94%29.86 "Hg5 mi
11:50 AM64 °FPartly sunny.5 mph94%29.86 "Hg4 mi
11:20 AM63 °FDrizzle. Broken clouds.5 mph100%29.86 "Hg2 mi
10:50 AM63 °FDrizzle. Broken clouds.7 mph100%29.83 "Hg2 mi
10:20 AM63 °FDrizzle. Broken clouds.6 mph94%29.83 "Hg2 mi
9:50 AM63 °FDrizzle. Partly sunny.3 mph94%29.83 "Hg3 mi
9:20 AM63 °FLight rain. Partly sunny.6 mph94%29.83 "Hg3 mi
8:50 AM63 °FDrizzle. Partly sunny.5 mph94%29.83 "Hg2 mi
8:20 AM63 °FPartly sunny.5 mph94%29.83 "HgN/A
7:50 AM63 °FPartly sunny.6 mph94%29.83 "HgN/A
7:50 PM
Jul 29
64 °FLight rain. Partly sunny.2 mph94%29.80 "HgN/A
7:20 PM64 °FPartly sunny.3 mph94%29.80 "HgN/A
6:50 PM64 °FPartly sunny.5 mph88%29.80 "HgN/A
6:20 PM64 °FMostly cloudy.5 mph94%29.80 "HgN/A
5:50 PM66 °FMostly cloudy.7 mph88%29.80 "HgN/A
5:20 PM66 °FMore clouds than sun.6 mph83%29.80 "HgN/A
Weather by CustomWeather, © 2014

See weather overviewHow to use our weather pages